X-SAT

Last updated on Tue Sep 16 2025 00:03:34 GMT+0000 (Coordinated Universal Time)

1 37389U 11015C 25258.57091006 .00000129 00000+0 72149-4 0 9996 2 37389 98.3217 244.1939 0015291 70.9820 289.3016 14.25072944748565
UTC large
Height (km)
Speed (km/s)
/
Latitude / Longitude
Inclination (degrees)
Orbital Period (minutes)
Azimuth
Elevation
Range (km)
Doppler Factor

Next 0 passes for location: London (51.5072 / 0.1276)

Sorry there are no passes over London.